Regional Weather Roundup
Issued by NWS Newport/Morehead, NC

Current Version | Previous Version | Graphics & Text | Print | Product List | Glossary On
Versions: 1 2 3 4 5 6 7 8 9 10 11 12 13 14 15 16 17 18 19 20 21 22 23 24 25 26 27 28 29 30 31 32 33 34 35 36 37 38 39 40 41 42 43 44 45 46 47 48 49 50
000 ASUS42 KMHX 021313 RWRMHX WEATHER ROUNDUP FOR EASTERN NORTH CAROLINA NATIONAL WEATHER SERVICE NEWPORT/MOREHEAD CITY NC 900 AM EDT MON MAY 02 2016 NOTE: "FAIR" INDICATES FEW OR NO CLOUDS BELOW 12,000 FEET WITH NO SIGNIFICANT WEATHER AND/OR OBSTRUCTIONS TO VISIBILITY NCZ015>017-031-032-045>047-102-103-021400- NORTH COAST CITY SKY/WX TMP DP RH WIND PRES REMARKS EDENTON CLOUDY 72 72 99 W8 30.04R ELIZABETH CITY CLOUDY 71 67 87 SW9 30.02R KITTY HAWK CLOUDY 72 70 93 SW7G16 30.02R MANTEO NOT AVBL $$ NCZ045>047-081-094-103-104-021400- CENTRAL COAST CITY SKY/WX TMP DP RH WIND PRES REMARKS FRISCO CLOUDY 71 68 90 SW8 30.06R SWANQUARTER NOT AVBL $$ NCZ095-097-098-100-101-021400- SOUTHERN COAST CITY SKY/WX TMP DP RH WIND PRES REMARKS BEAUFORT PTSUNNY 73 69 87 SW15 30.07R CEDAR ISLAND NOT AVBL JACKSONVILLE N/A 73 69 87 SW10 30.06R PINEY ISLAND NOT AVBL WILMINGTON CLOUDY 75 71 87 SW12G21 30.06R $$ NCZ011>013-027>030-043-044-078>080-089-090>093-098-021400- COASTAL PLAIN CITY SKY/WX TMP DP RH WIND PRES REMARKS AHOSKIE N/A 70 67 90 S5 30.01S CLINTON PTSUNNY 72 70 92 SW7 30.05S ELIZABETHTOWN PTSUNNY 72 70 94 SW6 30.06S GOLDSBORO MOSUNNY 73 73 100 SW12 30.03R GREENVILLE CLOUDY 72 70 94 SW8 30.05S FOG HAVELOCK CLOUDY 75 70 84 SW14 30.07R KENANSVILLE CLOUDY 73 68 86 SW5 30.06S KINSTON CLOUDY 73 68 83 SW15G21 30.05R NEW BERN CLOUDY 73 69 87 SW10 30.07R RICHLANDS CLOUDY 71 70 96 W8 30.07R FOG ROCKY MOUNT CLOUDY 70 67 90 SW8 30.03R WASHINGTON CLOUDY 72 68 88 W8 30.04R WHITEVILLE CLOUDY 71 69 96 SW6 30.06R FOG $$ AMZ130-135-150-152-154-156-158-170-250-252-270-ANZ085-086-088-633-658-670-021400- MARINE OBSERVATIONS STATION/POSITION TIME TEMP WIND PRES WAVE SWELL AIR SEA DIR/SP/G HT/PER HT/PER (UTC) (F) (DEG/KT/KT) (MB) (FT/S) (FT/S) CHESAPEAKE LIGHT 1300 66 230/ 20/ 21 1015.7 64 E VA BEACH 1250 59 53 200/ 14/ 14 1015.8 5/10 5/10 DUCK 1200 69 67 220/ 13/ 16 1015.4 2 E DUCK 1211 58 N/A 3/11 2/11 OREGON INLET 1200 69 67 200/ 10/ 12 1016.6 13E OREGON INLT 1300 60 N/A 5/12 5/12 HATTERAS CG 1200 71 68 210/ 7/ 11 1017.2 DIAMOND BUOY 1250 74 72 220/ 14/ 16 1017.8 5/ 9 3/ 9 CAPE LOOKOUT 1300 73 220/ 9/ 11 1017.9 BEAUFORT LAB 1200 71 67 210/ 8/ 12 1016.5 30 SE NEW RVR IN 1225 69 N/A 4/ 5 27 SE WRIGHTSVLE 1208 73 71 210/ 12/ 16 1017.5 5 SE WRIGHTSVLE 1208 70 68 220/ 10/ 12 1018.3 225 S CAPE HAT 1250 73 74 140/ 8/ 10 1020.7 3/ 9 3/ 9 41 SE CHARLESTON 1250 75 73 230/ 6/ 6 1017.9 3/ 9 3/ 9 $$

USA.gov is the U.S. government's official web portal to all federal, state and local government web resources and services.